www.pogodaiklimat.ru

Погода и климат >> Архив погоды >> Маврикий >> Saint Brandon Saint Raphael


ПОГОДА в Saint Brandon Saint Raphael

  • Прогноз погоды в Saint Brandon Saint Raphael
  • Монитор погоды в Saint Brandon Saint Raphael
  • Климат города

АРХИВ ПОГОДЫ в Saint Brandon Saint Raphael

Время (UTC), дата Ветер
(напр.,м/с)
 
Видим.   Явления Облачность Т
(С)
Тd
(С)
f
(%)
Тe
(С)
Тes
(С)
Комфортность P
(гПа)
Po
(гПа)
Тmin
(С)
Tmax
(С)
R
(мм)
R24
(мм)
S
(см)
15 14.10 В 4 15 км в посл. час ливневой дождь 9/9 480 м
[Cu Sc]
+24.6 +22.2 87 +32 +32 очень
душно
1016.8 1017.0 0.0
18 14.10 В 6 15 км в посл. час ливневой дождь 10/10 480 м
[Cu Sc]
+23.0 +21.5 91 +31 +31 очень
душно
1017.8 1018.0 +29.2 0.4
00 15.10 В 4 15 км осадки на расстоянии 9/9 480 м
[Cu Sc]
+23.2 +20.6 85 +31 +31 очень
душно
1015.8 1016.0
03 15.10 СВ 7 12 км осадки на расстоянии 10/10 480 м
[Cu Sc]
+23.6 +21.3 87 +30 +30 очень
душно
1017.3 1017.0
06 15.10 СВ 4 12 км осадки на расстоянии {ливн. осадки} 10/10 480 м
[Cu Sc]
+23.5 +20.6 84 +29 +29 душно 1018.3 1018.0 +22.4 1
09 15.10 ЮВ 2 15 км осадки на расстоянии {ливн. осадки} 9/9 480 м
[Cu Sc]
+25.7 +20.6 73 +32 +34 очень
душно
1016.9 1017.0 0.3
12 15.10 В 4 20 км осадки на расстоянии {ливн. осадки} 9/9 480 м
[Cu Sc]
+24.9 +21.3 80 +31 +32 очень
душно
1016.1 1016.0 1
15 15.10 ЮВ 2 18 км осадки на расстоянии 9/9 480 м
[Cu Sc Ac lent]
+24.6 +20.7 79 +31 +31 очень
душно
1018.0 1018.0
18 15.10 В 4 20 км 9/9 480 м
[Cu Sc]
+24.6 +20.7 79 +31 +31 очень
душно
1018.6 1019.0 +26.2 1
00 16.10 В 4 18 км осадки на расстоянии 9/9 540 м
[Cu Sc]
+24.2 +20.6 80 +30 +30 очень
душно
1016.9 1017.0
03 16.10 В 5 20 км 9/9 540 м
[Cu Sc]
+24.5 +20.3 77 +30 +30 очень
душно
1017.8 1018.0
06 16.10 В 5 30 км 3/3 570 м
[Cu Sc]
+27.7 +21.0 67 +35 +42 очень
душно
1018.3 1018.0 +22.5 1
09 16.10 В 4 30 км 3/3 570 м
[Cu Sc Ac lent]
+29.3 +21.5 63 +37 +48 очень
душно
1016.6 1017.0
12 16.10 ЮВ 4 30 км 3/3 570 м
[Cu med, cong]
+27.9 +21.1 67 +35 +38 очень
душно
1015.5 1016.0
15 16.10 ЮВ 4 20 км 5/5 540 м
[Cu med, cong]
+25.1 +21.2 79 +32 +32 очень
душно
1017.1 1017.0
18 16.10 ЮВ 3 20 км 1/1 570 м
[Cu med, cong]
+24.5 +21.0 81 +31 +31 очень
душно
1018.0 1018.0 +29.5
00 17.10 В 5 20 км 3/3 540 м
[Cu med, cong]
+24.1 +21.1 83 +30 +30 очень
душно
1015.4 1015.0
03 17.10 В 2 30 км 3/3 570 м
[Cu Sc]
+24.5 +20.7 79 +30 +32 очень
душно
1016.6 1017.0
06 17.10 В 4 30 км 1/1 540 м
[Cu Sc]
+28.0 +21.9 69 +36 +46 очень
душно
1016.5 1017.0 +23.5
09 17.10 В 1 30 км 1/1 570 м
[Cu med, cong]
+30.5 +22.5 62 +40 +62 опасность
солнечного
удара
1015.5 1016.0
12 17.10 В 2 30 км 3/3 540 м
[Cu Sc]
+29.4 +22.3 66 +38 +43 очень
душно
1014.2 1014.0
15 17.10 В 1 20 км 5/5 540 м
[Cu Sc]
+25.6 +21.6 79 +33 +33 очень
душно
1015.4 1015.0
18 17.10 В 2 12 км осадки на расстоянии 9/9 480 м
[Cu Sc]
+25.1 +21.8 82 +32 +32 очень
душно
1016.2 1016.0 +30.5
00 18.10 В 5 20 км {ливн. осадки} 4/4 540 м
[Cu Sc]
+24.6 +22.2 87 +32 +32 очень
душно
1013.8 1014.0 6
03 18.10 В 7 30 км 1/1 570 м
[Cu Sc]
+25.0 +22.2 84 +32 +33 очень
душно
1015.2 1015.0
06 18.10 В 6 25 км 6/6 540 м
[Cu Sc]
+27.0 +23.1 79 +36 +39 очень
душно
1015.9 1016.0 +23.8 6
09 18.10 СВ 7 30 км 4/4 570 м
[Cu Sc Ac trans]
+28.5 +22.9 72 +38 +42 очень
душно
1014.3 1014.0
12 18.10 В 5 30 км 1/1 570 м
[Cu med, cong]
+26.6 +23.3 82 +36 +39 очень
душно
1013.4 1013.0
15 18.10 В 7 12 км осадки на расстоянии 9/9 480 м
[Cu Sc]
+25.6 +22.5 83 +34 +34 очень
душно
1014.6 1015.0
18 18.10 В 5 20 км 3/3 540 м
[Cu Sc]
+25.2 +22.5 85 +33 +33 очень
душно
1016.0 1016.0 +28.5
00 19.10 В 5 20 км 1/1 540 м
[Cu med, cong]
+24.8 +22.3 86 +32 +32 очень
душно
1013.7 1014.0
03 19.10 В 5 25 км 6/4 540 м
[Cu Sc Ci sp]
+25.5 +22.7 85 +34 +34 очень
душно
1015.7 1016.0
06 19.10 В 6 30 км 10/1 570 м
[Cu med, cong Cs]
+27.8 +23.2 76 +37 +42 очень
душно
1016.1 1016.0 +24.5
09 19.10 В 5 30 км 9/4 540 м
[Cu med, cong Cs]
+29.0 +23.4 72 +39 +45 очень
душно
1014.8 1015.0
12 19.10 В 5 30 км 9/1 540 м
[Cu med, cong Ci sp]
+28.0 +23.1 75 +38 +40 очень
душно
1013.9 1014.0
15 19.10 В 6 18 км осадки на расстоянии 8/4 540 м
[Cu Sc Ci sp]
+25.9 +23.1 85 +35 +35 очень
душно
1015.7 1016.0
18 19.10 В 5 20 км 5/3 540 м
[Cu Sc Ci sp]
+25.6 +23.4 88 +35 +35 очень
душно
1017.1 1017.0 +29.2
00 20.10 В 5 20 км 3/3 540 м
[Cu Sc]
+25.2 +23.0 88 +34 +34 очень
душно
1014.8 1015.0
03 20.10 СВ 5 25 км 4/1 540 м
[Cu Sc Ac lent Ci sp]
+25.6 +23.1 86 +34 +35 очень
душно
1015.9 1016.0
06 20.10 В 4 30 км 8/4 540 м
[Cu Sc Ac lent Ci sp]
+28.5 +24.1 77 +40 +45 очень
душно
1016.6 1017.0 +24.8
09 20.10 В 5 25 км 9/3 540 м
[Cu med, cong Ci sp]
+29.5 +23.7 71 +40 +46 очень
душно
1015.3 1015.0
12 20.10 В 5 20 км 9/5 540 м
[Cu Sc Ac lent Ci sp]
+28.0 +23.3 76 +38 +39 очень
душно
1014.5 1015.0
15 20.10 СВ 5 20 км 6/5 540 м
[Cu Sc Ac lent Ci sp]
+25.6 +23.1 86 +34 +34 очень
душно
1016.5 1017.0
18 20.10 В 3 20 км 9/5 540 м
[Cu Sc Ac trans]
+25.6 +23.1 86 +34 +34 очень
душно
1018.5 1019.0 +29.9
00 21.10 В 6 20 км 3/3 540 м
[Cu med, cong]
+25.0 +22.8 88 +33 +33 очень
душно
1015.9 1016.0
03 21.10 В 4 25 км 8/4 540 м
[Cu Sc Ac lent Ci sp]
+25.5 +22.7 85 +34 +34 очень
душно
1017.1 1017.0
06 21.10 В 5 25 км 8/3 540 м
[Cu Sc Ci sp]
+28.0 +23.4 76 +38 +43 очень
душно
1017.6 1018.0 +24.7
09 21.10 В 5 25 км 9/4 540 м
[Cu Sc Ac lent Ci sp]
+29.0 +23.5 72 +39 +44 очень
душно
1015.6 1016.0
12 21.10 В 5 25 км 9/6 540 м
[Cu med, cong Ci sp]
+28.5 +23.6 75 +39 +40 очень
душно
1014.8 1015.0

 

Местоположение метеостанции Saint Brandon Saint Raphael (Маврикий): широта -16.45 долгота 59.62 высота над уровнем моря 4 м.

В архиве по умолчанию представлена погода в Saint Brandon Saint Raphael за последнюю неделю. Архивные данные за месяц целиком и за предыдущие месяцы, начиная с января 2011 года, Вы можете получить, выбрав интересующий диапазон дат из раскрывающегося списка и нажав кнопку "Ввод!".


*Определитесь, кто Вы:
робот инопланетянин человек

Внимание! Время в таблицах - всемирное. Для получения местного времени необходимо прибавить поправку, которая в Saint Brandon Saint Raphael равна 4 ч.

Смотрите также архив погоды в соседних городах и на ближайших метеорологических станциях:

Погода в Vacoas Mauritius (Маврикий) (483 км)
Погода в Sir Seewoosagur Ramgoolam Airport (Маврикий) (488 км)
Погода в Rodrigues (Маврикий) (539 км)
Погода в Sir Gaetan Duval Airport (Маврикий) (540 км)
Погода в Serge-Frolow (Реюньон) (552 км)
Погода в Saint-Denis (Реюньон) (655 км)
Погода в Agalega (Маврикий) (738 км)
Погода в Antalaha (Мадагаскар) (1018 км)
Погода в Sambava (Мадагаскар) (1042 км)
Погода в Nosy Boraha (Мадагаскар) (1046 км)

Пояснения к столбцам:

Ветер - указаны скорость ветра в м/с - средняя за 10 мин, порывы в срок и между сроками (в фигурных скобках) и направление, откуда дует ветер: С - северный, СВ - северо-восточный, В - восточный, ЮВ - юго-восточный, Ю - южный, ЮЗ - юго-западный, З - западный, СЗ - северо-западный.
Видимость - горизонтальная дальность видимости в метрах или километрах. При видимости от 1 до 10 км при отсутствии осадков обычно наблюдается дымка, при ухудшении видимости до 1 км и менее - туман. В сухую погоду видимость может ухудшаться дымом, пылью или мглою.
Явления - указаны атмосферные явления, наблюдавшиеся в срок или в последний час перед сроком; фигурными скобками обозначены явления, наблюдавшиеся между сроками (за 1-3 часа до срока); квадратными скобками обозначены град или гололедные отложения с указанием их диаметра в мм.
Облачность - указаны через наклонную черту общая и нижняя облачность в баллах и высота нижней границы облаков в метрах; квадратными скобками обозначены формы облаков: Ci - перистые, Cs - перисто-слоистые, Cc - перисто-кучевые, Ac - высококучевые, As - высокослоистые, Sc - слоисто-кучевые, Ns - слоисто-дождевые, Cu - кучевые, Cb - кучево-дождевые. Подробнее классификацию облаков см. в Атласе облаков (PDF).
T - Температура воздуха - температура, измеренная на высоте 2 м над землей.
Td - Температура точки росы - температура, при понижении до которой содержащийся в воздухе водяной пар достигнет насыщения.
f - Относительная влажность воздуха - влажноcть воздуха, измеренная на высоте 2 м над землей.
Te - Эффективная температура - температура, которую ощущает одетый по сезону человек в тени. Характеристика душности погоды. При расчете учитывается влияние влажности воздуха и скорости ветра на теплоощущения человека.
Tes - Эффективная температура на солнце - температура, которую ощущает человек, с поправкой на солнечный нагрев. Характеристика знойности погоды. Зависит от высоты солнца над горизонтом, облачности и скорости ветра. Ночью, в пасмурную погоду, а также при ветре 12 м/с и более поправка равна нулю.
P - Атмосферное давление - приведенное к уровню моря атмосферное давление.
Po - Атмосферное давление - измеренное на уровне метеостанции атмосферное давление.
Tmin - Минимальная температура - минимум температуры воздуха на высоте 2 м над землей.
Tmax - Максимальная температура - максимум температуры воздуха на высоте 2 м над землей.
R - Количество осадков - Количество выпавших осадков за период времени, мм. При наведении курсора мыши на число - период времени, за который выпало указанное количество осадков.
R24 - Количество осадков - Количество выпавших осадков за 24 часа, мм.
S - Снежный покров - Высота снежного покрова, см. При наведении курсора мыши на число - состояние снежного покрова и степень покрытия местности в баллах.